#timestamp,LO_Frequency,Hit,StdDev 
1649030415.8,286047000.4,N
1649030435.6,286047000.3,N
1649030455.4,286047002.5,N
1649030475.3,286046998.1,N
1649030495.1,286046998.8,N
1649030515.8,286047003.6,N
1649030535.7,286047003.7,N
1649030555.5,286047007.6,N
1649030575.3,286047004.5,N
1649030595.2,286047003.3,N
1649030615.0,286047005.8,N
1649030615.9,286047005.8,N
1649030635.8,286047003.8,N
1649030655.6,286047000.1,N
1649030675.4,286047001.0,N
1649030695.3,286046998.2,N
1649030715.1,286047000.8,N
1649030735.9,286046997.0,N
1649030755.7,286046997.0,N
1649030775.5,286046999.2,N
1649030795.4,286046999.5,N
1649030815.2,286046996.5,N
1649030835.0,286046995.2,N
1649030835.9,286046995.2,N
1649030855.8,286046997.7,N
1649030875.6,286046998.6,N
1649030895.5,286047001.1,N
1649030915.3,286046998.4,N
1649030935.1,286047002.5,N
1649030955.9,286046999.7,N
1649030975.7,286046998.3,N
1649030995.5,286047000.7,N
1649031015.4,286046998.8,N
1649031035.2,286046999.8,N
1649031055.1,286047005.0,N
1649031056.0,286047005.0,N
1649031075.8,286047005.7,N
1649031095.6,286047002.9,N
1649031115.5,286047003.6,N
1649031135.3,286047000.4,N
1649031155.1,286047000.4,N
1649031175.9,286046998.4,N
1649031195.7,286046996.9,N
1649031215.6,286046994.9,N
1649031235.4,286046997.6,N
1649031255.2,286046999.0,N
1649031275.1,286047002.3,N
1649031276.0,286047002.3,N
1649031295.8,286047002.3,N
1649031315.6,286047000.1,N
1649031335.5,286046999.0,N
1649031355.3,286046996.9,N
1649031375.2,286046992.1,N
1649031395.9,286046988.5,Y
1649031415.7,286046987.6,P
1649031435.6,286046990.0,N
1649031455.4,286046987.5,N
1649031475.2,286046989.8,N
1649031495.1,286046990.3,N
1649031496.0,286046990.3,N
1649031515.8,286046992.7,N
1649031535.7,286046987.1,Y
1649031555.5,286046992.4,P
1649031575.3,286046999.3,N
1649031595.2,286046996.5,N
1649031615.0,286046995.5,N
1649031615.9,286046995.5,N
1649031635.7,286046992.6,N
1649031655.6,286046996.1,N
1649031675.4,286046998.0,N
1649031695.3,286047000.3,N
1649031715.1,286047000.5,N
1649031716.0,286047000.5,N
1649031735.8,286047000.7,N
1649031755.7,286047002.2,N
1649031775.5,286047001.2,N
1649031795.3,286047002.1,N
1649031815.2,286047002.4,N
1649031835.0,286047003.2,N
1649031835.9,286047003.2,N
1649031855.8,286047003.5,N
1649031875.6,286046998.5,N
1649031895.4,286047000.4,N
1649031915.3,286047002.8,N
1649031935.1,286047000.1,N
1649031955.8,286046997.4,N
1649031975.7,286046998.5,N
1649031995.5,286047001.3,N
1649032015.4,286047004.2,N
1649032035.2,286047005.5,N
1649032055.0,286047006.8,N
1649032055.9,286047006.8,N
1649032075.8,286047001.7,N
1649032095.6,286047002.9,N
1649032115.4,286047003.9,N
1649032135.3,286047005.1,N
1649032155.1,286047008.7,N
1649032175.9,286047005.8,N
1649032195.7,286047003.8,N
1649032215.5,286047002.2,N
1649032235.4,286046997.7,N
1649032255.2,286047001.1,N
1649032275.0,286046998.3,N
1649032275.9,286046998.3,N
1649032295.8,286046997.7,N
1649032315.6,286047000.5,N
1649032335.5,286047002.6,N
1649032355.3,286046999.7,N
1649032375.1,286047000.2,N
1649032395.9,286047000.4,N
1649032415.7,286047003.6,N
1649032435.5,286046999.7,N
1649032455.4,286047005.3,N
1649032475.2,286047003.1,N
1649032495.1,286047004.2,N
1649032496.0,286047004.2,N
1649032515.8,286047004.2,N
1649032535.6,286047001.7,N
1649032555.5,286047000.4,N
1649032575.3,286046999.2,N
1649032595.1,286047000.3,N
1649032615.9,286046998.5,N
1649032635.7,286047002.3,N
1649032655.6,286047001.4,N
1649032675.4,286046998.3,N
1649032695.2,286046995.6,N
1649032715.1,286046995.9,N
1649032716.0,286046995.9,N
1649032735.8,286046999.0,N
1649032755.6,286046997.0,N
1649032775.5,286046996.9,N
1649032795.3,286046996.8,N
1649032815.2,286047000.6,N
1649032835.9,286047002.3,N
1649032855.7,286047002.1,N
1649032875.6,286047005.8,N
1649032895.4,286047005.3,N
1649032915.3,286047006.8,N
1649032935.1,286047006.6,N
1649032936.0,286047006.6,N
1649032955.8,286047010.6,Y
1649032975.7,286047004.6,P
1649032995.5,286047002.0,N
1649033015.4,286047000.3,N
1649033035.2,286047000.7,N
1649033055.0,286047000.9,N
1649033055.9,286047000.9,N
1649033075.8,286047000.0,N
1649033095.6,286047001.0,N
1649033115.4,286047000.9,N
1649033135.3,286047003.8,Y
1649033155.1,286046998.6,P
1649033175.9,286046999.8,N
1649033195.7,286047000.1,N
1649033215.5,286046998.6,N
1649033235.4,286046998.8,N
1649033255.2,286046998.7,N
1649033275.1,286046999.0,N
1649033276.0,286046999.0,N
1649033295.8,286047002.6,Y
1649033315.6,286047002.4,P
1649033335.5,286047006.0,P
1649033355.3,286047004.5,N
1649033375.2,286047002.9,N
1649033395.9,286047005.8,N
1649033415.7,286047007.0,Y
1649033435.6,286047000.7,P
1649033455.4,286046996.3,N
1649033475.2,286046993.3,N
1649033495.1,286046995.6,N
1649033496.0,286046995.6,N
1649033515.8,286046998.4,N
1649033535.7,286046999.7,N
1649033555.5,286046999.8,N
1649033575.3,286047002.3,N
1649033595.2,286046999.9,N
1649033615.0,286047004.0,N
1649033615.9,286047004.0,N
1649033635.7,286047005.4,N
1649033655.6,286047005.9,N
1649033675.4,286047007.3,N
1649033695.3,286047007.8,N
1649033715.1,286047006.4,N
1649033716.0,286047006.4,N
1649033735.8,286047007.1,N
1649033755.7,286047008.6,N
1649033775.5,286047009.2,N
1649033795.3,286047006.6,N
1649033815.2,286047005.3,N
1649033835.0,286047001.7,N
1649033835.9,286047001.7,N
1649033855.8,286047004.5,N
1649033875.6,286047005.9,N
1649033895.4,286047005.0,N
1649033915.3,286047002.0,N
1649033935.1,286047000.2,N
1649033955.8,286047001.1,N
1649033975.7,286046996.1,N
1649033995.5,286046995.1,N
